• MPC Preparation (Info)

  • MPEC 2023-F183 : 2023 FC6

    The following Minor Planet Electronic Circular may be linked-to from your own Web pages, but must not otherwise be redistributed electronically.

    A form allowing access to any MPEC is at the bottom of this page.


    Read MPEC 2023-F182 Read MPEC 2023-F184


    M.P.E.C. 2023-F183                               Issued 2023 March 28, 10:49 UT
    
         The Minor Planet Electronic Circulars contain information on unusual
             minor planets, routine data on comets and natural satellites,
             and occasional editorial announcements.  They are published
        on behalf of Division F of the International Astronomical Union by the
              Minor Planet Center, Smithsonian Astrophysical Observatory,
                              Cambridge, MA 02138, U.S.A.
    			  
                 Prepared using the Tamkin Foundation Computer Network
    
                                  MPC@CFA.HARVARD.EDU
                URL https://www.minorplanetcenter.net/    ISSN 1523-6714
    
                                    2023 FC6                                 
    
    
    Observations:
         K23F06C*1C2023 03 26.46900117 29 14.082+15 06 40.68         20.86GVEF183G96
         K23F06C 1C2023 03 26.47412317 29 16.008+15 06 31.68         21.58GVEF183G96
         K23F06C 1C2023 03 26.47923617 29 17.952+15 06 22.75         20.73GVEF183G96
         K23F06C 1C2023 03 26.48435617 29 19.853+15 06 13.50         21.36GVEF183G96
         K23F06C KC2023 03 26.50457617 29 27.490+15 05 39.20         19.70GVEF183I52
         K23F06C KC2023 03 26.50670817 29 28.330+15 05 34.40         19.53GVEF183I52
         K23F06C KC2023 03 26.50884017 29 29.110+15 05 31.10         20.30GVEF183I52
         K23F06C KC2023 03 26.51096617 29 29.920+15 05 27.40         20.15GVEF183I52
         K23F06C KC2023 03 27.38455 17 35 13.83 +14 39 09.1          20.1 VqEF183H36
         K23F06C KC2023 03 27.39219 17 35 16.78 +14 38 55.4          19.8 VqEF183H36
         K23F06C KC2023 03 27.39936 17 35 19.52 +14 38 42.1          19.9 VqEF183H36
         K23F06C KC2023 03 27.43659 17 35 33.94 +14 37 34.0          19.6 VqEF183734
         K23F06C KC2023 03 27.44094 17 35 35.58 +14 37 26.1          19.0 VqEF183734
         K23F06C KC2023 03 27.44492 17 35 37.12 +14 37 19.1          19.8 VqEF183734
         K23F06C KC2023 03 28.03333317 39 32.86 +14 18 42.6                XEF183I93
         K23F06C KC2023 03 28.04847317 39 38.60 +14 18 13.7          19.8 GVEF183L01
         K23F06C KC2023 03 28.04892817 39 39.03 +14 18 12.8          19.8 GXEF183I93
         K23F06C IC2023 03 28.05099817 39 39.61 +14 18 09.3          20.3 GVEF183L01
         K23F06C KC2023 03 28.05352517 39 40.64 +14 18 05.4          20.0 GVEF183L01
         K23F06C IC2023 03 28.06097617 39 43.59 +14 17 51.0          20.3 GVEF183L01
         K23F06C KC2023 03 28.06432317 39 45.12 +14 17 43.9          20.3 GXEF183I93
         K23F06C KC2023 03 28.06906017 39 46.67 +14 17 35.7          20.0 GVEF183L01
         K23F06C KC2023 03 28.09618 17 39 57.51 +14 16 43.1                VEF183204
         K23F06C KC2023 03 28.11560 17 40 05.10 +14 16 06.0          19.8 GVEF183204
         K23F06C KC2023 03 28.42083417 42 08.543+14 06 18.86         19.93GVEF183I52
         K23F06C KC2023 03 28.42158817 42 08.842+14 06 17.71         19.94GVEF183I52
         K23F06C KC2023 03 28.42234317 42 09.151+14 06 16.20         20.04GVEF183I52
         K23F06C KC2023 03 28.42309617 42 09.468+14 06 14.72         20.09GVEF183I52
    
    Observer details:
    204 Schiaparelli Observatory.  Observer L. Buzzi.  0.84-m f/3.5 reflector +
        CCD.
    734 Farpoint Observatory, Eskridge.  Observers D. Cromer, G. Hug, D. Goodin,
        R. Valentine.  Measurer D. Cromer.  0.70-m f/3.0 reflector + CCD.
    G96 Mt. Lemmon Survey.  Observer H. Groeller.  Measurers E. J. Christensen, D.
        Fay, J. B. Fazekas, D. C. Fuls, A. R. Gibbs, A. D. Grauer, H. Groeller, J.
        K. Hogan, R. A. Kowalski, S. M. Larson, G. J. Leonard, D. Rankin, R. L.
        Seaman, A. Serrano, F. C. Shelly, K. W. Wierzchos.  1.5-m reflector + 10K
        CCD.
    H36 Sandlot Observatory, Scranton.  Observer G. Hug.  0.56-m f/4.8 .56 meter
        reflector + CCD.
    I52 Steward Observatory, Mt. Lemmon Station.  Observers R. A. Kowalski, J. B.
        Fazekas.  Measurers E. J. Christensen, D. Fay, J. B. Fazekas, D. C. Fuls,
        A. R. Gibbs, A. D. Grauer, H. Groeller, J. K. Hogan, R. A. Kowalski, S. M.
        Larson, G. J. Leonard, D. Rankin, R. L. Seaman, A. Serrano, F. C. Shelly,
        K. W. Wierzchos.  1.0-m prime focus + CCD.
    I93 St Pardon de Conques.  Observer F. Losse.  0.40-m f/3.7 reflector + CCD.
    L01 Visnjan Observatory, Tican.  Observer K. Korlevic.  1.0-m f/2.9 reflector
        + CCD.
    
    Orbital elements:
    2023 FC6                                            PHA, Earth MOID = 0.0447 AU
    Epoch 2023 Feb. 25.0 TT = JDT 2460000.5                 Veres                   
    M 320.78549              (2000.0)            P               Q                  
    n   0.50406539     Peri.  195.94831     -0.33837904     +0.92001409             
    a   1.5636689      Node    54.67967     -0.83471808     -0.19647812             
    e   0.3910517      Incl.   14.02017     -0.43444833     -0.33907288             
    P   1.96           H   20.79          G   0.15           U   9                  
    Residuals in seconds of arc
    230326 G96  0.1+  0.1+    230327 H36  0.1-  0.0     230328 I93  0.1-  0.4+
    230326 G96  0.1-  0.0     230327 734  0.4+  0.2+    230328 L01  0.7-  0.4+
    230326 G96  0.1+  0.1-    230327 734  0.1-  0.3+    230328 204  0.2+  0.1-
    230326 G96  0.3-  0.4-    230327 734  0.0   0.7+    230328 204  0.4-  0.2-
    230326 I52  0.2-  0.5+    230328 I93  0.3+  0.6+    230328 I52  0.3-  0.3-
    230326 I52  0.3+  0.5-    230328 L01  0.1-  0.6-    230328 I52  0.3-  0.1+
    230326 I52  0.1-  0.1-    230328 I93  0.0   0.2+    230328 I52  0.1-  0.0
    230326 I52  0.0   0.1-    230328 L01  0.1+  0.2-    230328 I52  0.2+  0.0
    230327 H36  0.5+  0.0     230328 L01  0.6+  0.6+
    230327 H36  0.4+  0.2+    230328 L01  0.8+  0.4+
    
    Ephemeris:
    2023 FC6                 a,e,i = 1.56, 0.39, 14                  q = 0.9522
    Date    TT    R. A. (2000) Decl.     Delta      r    Elong.  Phase     V
    2023 02 26    15 08 40.5 +20 47 29   0.4481  1.2364   113.1    47.4    21.3
    ...
    2023 03 13    16 12 58.2 +19 24 19   0.3419  1.1524   109.2    54.5    20.8
    ...
    2023 03 21    16 55 40.4 +17 21 37   0.2952  1.1104   105.2    60.0    20.5
    ...
    2023 03 27    17 32 40.7 +14 51 08   0.2660  1.0808   101.1    64.9    20.4
    2023 03 28    17 39 17.6 +14 20 08   0.2618  1.0760   100.3    65.8    20.4
    2023 03 29    17 46 02.3 +13 47 19   0.2576  1.0713    99.5    66.8    20.3
    ...
    2023 04 04    18 29 07.7 +09 51 43   0.2372  1.0445    94.3    72.7    20.3
    ...
    2023 04 12    19 32 08.5 +03 07 49   0.2230  1.0130    86.4    80.9    20.4
    ...
    2023 04 27    21 30 28.5 -09 49 36   0.2416  0.9699    74.5    91.7    20.9
    
    M. P. C. Staff               (C) Copyright 2023 MPC           M.P.E.C. 2023-F183
    


    Read MPEC 2023-F182 Read MPEC 2023-F184


    MPEC number:

    Enter an MPEC number in one of the following forms:

    • 1997-B01 (the full form)
    • J97B01 (the packed version of the full form)
    • B01 (the abbreviated form)